[ ตารางข้อมูล ] [ Min-Max ] [ วันนี้2 ] [ วันนี้4 ] [ เทียบ-A 3วัน ] [ เทียบ-B 4วัน ]   

วันนี้4   [ ◀ ช่วงเก่ากว่า ] [ ช่วงที่ 61 ] [ ช่วงใหม่กว่า ▶ ] [ ล่าสุด ]    [ 3 ชั่วโมง ] [ 6 ชั่วโมง ] [ 12 ชั่วโมง ] [ 24 ชั่วโมง ]   วันนี้4

อุณภูมิในตู้ Knockdown4529  ราย 24 ชั่วโมง  ที่วัดได้ ในช่วงวันเวลา 04/07/2026 (14:23) ถึง 05/07/2026 (14:23) 
ความชื้นในตู้ Knockdown4529  ราย 24 ชั่วโมง  ที่วัดได้ ในช่วงวันเวลา 04/07/2026 (14:23) ถึง 05/07/2026 (14:23) 
การใช้ไฟฟ้าในตู้ Knockdown4529  ราย 24 ชั่วโมง  ที่วัดได้ ในช่วงวันเวลา 04/07/2026 (14:23) ถึง 05/07/2026 (14:23) 

  DS18B20SHTC3PZEM-004TWiFi 
IDDate d/m/Y & Timedata1
สูง
data2
ต่ำ
data3
นอก
temp
pcb
hum
pcb
VoltAmpWattrssiTime
 499  05/07/2026 14:21:35  32.5  32.4  34.9  32.9  65.5  229.1  0.04  4.4  -65  14:21 
 498  05/07/2026 14:16:52  32.4  32.3  34.8  32.9  65.3  229.9  0.04  4.6  -64  14:16 
 497  05/07/2026 14:12:09  32.4  32.2  35.2  33.0  65.3  231.3  0.04  4.6  -63  14:12 
 496  05/07/2026 14:07:26  32.4  32.2  35.0  32.9  65.2  229.8  0.04  4.4  -65  14:07 
 495  05/07/2026 14:02:43  32.3  32.2  34.9  32.7  65.3  229.4  0.04  4.6  -63  14:02 
 494  05/07/2026 13:58:00  32.2  32.1  35.0  32.7  65.3  231.4  0.04  4.5  -64  13:58 
 493  05/07/2026 13:53:17  32.2  32.0  34.7  32.8  65.3  229.8  0.04  4.6  -63  13:53 
 492  05/07/2026 13:48:35  32.1  32.0  34.5  32.8  65.4  229.5  0.04  4.6  -65  13:48 
 491  05/07/2026 13:43:51  32.1  31.9  34.9  32.7  65.4  229.9  0.04  4.6  -66  13:43 
 490  05/07/2026 13:39:08  32.1  31.8  34.5  32.6  65.2  231.5  0.04  4.6  -63  13:39 
 489  05/07/2026 13:34:25  32.0  31.8  34.6  32.6  65.5  232.1  0.04  4.6  -62  13:34 
 488  05/07/2026 13:29:42  31.9  31.8  34.6  32.4  65.4  231.7  0.04  4.6  -61  13:29 
 487  05/07/2026 13:24:57  31.9  31.6  34.5  32.3  65.4  231.9  0.04  4.6  -62  13:24 
 486  05/07/2026 13:20:15  31.8  31.6  34.4  32.5  65.5  231.6  0.04  4.6  -61  13:20 
 485  05/07/2026 13:15:32  31.8  31.5  34.4  32.2  65.4  231.7  0.04  4.6  -62  13:15 
 484  05/07/2026 13:10:49  31.7  31.4  33.7  32.3  65.5  232.2  0.04  4.6  -63  13:10 
 483  05/07/2026 13:06:06  31.6  31.4  34.0  32.2  65.6  232.2  0.04  4.6  -61  13:06 
 482  05/07/2026 13:01:23  31.6  31.3  34.0  32.1  65.6  232.3  0.04  4.6  -63  13:01 
 481  05/07/2026 12:56:40  31.5  31.2  34.1  32.0  65.6  232.1  0.04  4.6  -62  12:56 
 480  05/07/2026 12:51:58  31.4  31.2  33.7  32.0  65.7  232.8  0.04  4.6  -65  12:51 
 479  05/07/2026 12:47:15  31.4  31.1  33.9  31.8  65.7  232.5  0.04  4.6  -65  12:47 
 478  05/07/2026 12:42:33  31.2  31.1  34.0  31.8  65.8  232.4  0.04  4.6  -64  12:42 
 477  05/07/2026 12:37:50  31.2  31.0  33.6  31.8  65.9  231.9  0.04  4.6  -64  12:37 
 476  05/07/2026 12:33:06  31.1  30.9  33.4  31.6  65.7  232.3  0.04  4.6  -64  12:33 

Data every 5 minute.


ใช้เวลาประมวลผล 0.03179 วินาที